FW2316 Weather Reports


Display with metric or nautical units.
time (UTC)temp
F
wind
direction
speed
MPH
gust
MPH
rain 1hr
in
rain 24hr
in
rain mn
in
humidity
%
barometer
mb
20260504130600 54 109 0.0 2.0 0.00 0.00 0.00 70 1010.5
20260504120104 58 109 1.0 2.0 0.00 0.00 0.00 63 1010.3
20260504110546 59 144 0.0 0.0 0.00 0.00 0.00 60 1010.0
20260504100541 61 107 2.0 6.0 0.00 0.00 0.00 62 1010.1
20260504081532 58 138 0.0 1.0 0.00 0.00 0.00 76 1010.6
20260504081030 58 138 0.0 0.0 0.00 0.00 0.00 76 1010.6
20260504080532 59 138 0.0 0.0 0.00 0.00 0.00 75 1010.6
20260504050526 64 225 0.0 0.0 0.00 0.00 0.00 73 1010.4
20260504045524 65 225 0.0 0.0 0.00 0.00 0.00 73 1010.4
20260504045028 65 225 0.0 0.0 0.00 0.00 0.00 72 1010.5
20260504044533 66 225 0.0 0.0 0.00 0.00 0.00 71 1010.5
20260504044025 66 225 0.0 0.0 0.00 0.00 0.00 71 1010.5
20260504043525 66 225 0.0 0.0 0.00 0.00 0.00 70 1010.6
20260504043034 67 225 0.0 0.0 0.00 0.00 0.00 68 1010.5
20260504042032 68 225 0.0 2.0 0.00 0.00 0.00 67 1010.4
20260504041526 68 225 1.0 2.0 0.00 0.00 0.00 65 1010.3
20260504041026 69 225 0.0 2.0 0.00 0.00 0.00 64 1010.3
20260504040525 69 225 0.0 2.0 0.00 0.00 0.00 64 1010.3
20260504040025 69 225 0.0 1.0 0.00 0.00 0.00 64 1010.3
20260504035525 70 225 0.0 2.0 0.00 0.00 0.00 62 1010.3
20260504035027 70 225 1.0 3.0 0.00 0.00 0.00 62 1010.3
20260504034524 70 225 1.0 3.0 0.00 0.00 0.00 61 1010.2
20260504034025 71 225 1.0 4.0 0.00 0.00 0.00 60 1010.1
20260504033526 71 225 2.0 4.0 0.00 0.00 0.00 60 1010.0
20260504033025 71 234 2.0 3.0 0.00 0.00 0.00 59 1010.0
20260504032024 72 240 2.0 3.0 0.00 0.00 0.00 58 1010.0
20260504031523 73 253 1.0 3.0 0.00 0.00 0.00 58 1009.9
20260504031023 73 254 1.0 3.0 0.00 0.00 0.00 57 1009.9
20260504030522 74 254 1.0 3.0 0.00 0.00 0.00 56 1009.9
20260504030022 75 254 1.0 3.0 0.00 0.00 0.00 54 1009.8
20260504025525 75 255 0.0 3.0 0.00 0.00 0.00 53 1009.8
20260504025023 76 255 2.0 4.0 0.00 0.00 0.00 51 1009.8
20260504024521 76 256 2.0 6.0 0.00 0.00 0.00 51 1009.8
20260504024021 77 256 0.0 6.0 0.00 0.00 0.00 51 1009.7
20260504023521 78 268 1.0 4.0 0.00 0.00 0.00 51 1009.8
20260504023022 78 271 2.0 5.0 0.00 0.00 0.00 49 1009.7
20260504022020 79 292 3.0 7.0 0.00 0.00 0.00 48 1009.6
20260504021520 79 283 2.0 7.0 0.00 0.00 0.00 48 1009.6
20260504021019 80 278 3.0 7.0 0.00 0.00 0.00 48 1009.7
20260504020519 80 294 2.0 8.0 0.00 0.00 0.00 48 1009.7
20260504020018 80 296 2.0 8.0 0.00 0.00 0.00 48 1009.8
20260504015520 80 293 3.0 9.0 0.00 0.00 0.00 48 1009.8
20260504015017 80 278 3.0 9.0 0.00 0.00 0.00 48 1009.7
20260504014518 81 289 4.0 8.0 0.00 0.00 0.00 47 1009.8
20260504014017 81 280 4.0 8.0 0.00 0.00 0.00 47 1009.8
20260504013519 81 273 5.0 8.0 0.00 0.00 0.00 46 1009.9
20260504013020 81 298 3.0 7.0 0.00 0.00 0.00 46 1009.9
20260504012019 82 284 4.0 10.0 0.00 0.00 0.00 46 1009.9
20260504011516 82 279 5.0 10.0 0.00 0.00 0.00 45 1010.0
20260504011015 82 275 4.0 9.0 0.00 0.00 0.00 44 1010.1
20260504010517 82 286 5.0 10.0 0.00 0.00 0.00 44 1010.0
20260504010014 82 288 5.0 10.0 0.00 0.00 0.00 44 1010.2
20260504005514 82 276 3.0 8.0 0.00 0.00 0.00 45 1010.2
20260504005014 82 252 2.0 8.0 0.00 0.00 0.00 44 1010.3
20260504004518 83 267 3.0 10.0 0.00 0.00 0.00 44 1010.3
20260504004012 83 296 5.0 8.0 0.00 0.00 0.00 43 1010.3
20260504003513 83 257 4.0 9.0 0.00 0.00 0.00 43 1010.3
20260504003012 82 233 0.0 7.0 0.00 0.00 0.00 43 1010.3
20260504002014 82 280 0.0 7.0 0.00 0.00 0.00 43 1010.4
20260504001512 82 253 1.0 6.0 0.00 0.00 0.00 42 1010.4
20260504001011 82 254 0.0 3.0 0.00 0.00 0.00 43 1010.5
20260504000510 82 175 0.0 3.0 0.00 0.00 0.00 44 1010.6
20260504000009 82 244 0.0 5.0 0.00 0.00 0.00 42 1010.7
20260503235511 82 221 1.0 5.0 0.00 0.00 0.00 43 1010.8
20260503235008 82 223 1.0 7.0 0.00 0.00 0.00 42 1010.8
20260503234513 82 259 0.0 7.0 0.00 0.00 0.00 43 1010.8
20260503234007 83 234 1.0 4.0 0.00 0.00 0.00 43 1010.9
20260503233507 83 240 2.0 4.0 0.00 0.00 0.00 44 1011.0
20260503233005 81 244 6.0 11.0 0.00 0.00 0.00 43 1011.0
20260503232003 83 298 5.0 9.0 0.00 0.00 0.00 43 1011.0
20260503231501 83 294 3.0 10.0 0.00 0.00 0.00 43 1011.1
20260503231102 83 288 5.0 10.0 0.00 0.00 0.00 43 1011.2
20260503230600 83 296 4.0 11.0 0.00 0.00 0.00 43 1011.2
20260503230116 83 311 6.0 11.0 0.00 0.00 0.00 44 1011.2
20260503225559 84 272 5.0 9.0 0.00 0.00 0.00 43 1011.2
20260503225058 84 293 5.0 9.0 0.00 0.00 0.00 44 1011.2
20260503224604 82 295 5.0 10.0 0.00 0.00 0.00 47 1011.3
20260503224057 82 234 5.0 11.0 0.00 0.00 0.00 46 1011.4
20260503223556 83 237 4.0 10.0 0.00 0.00 0.00 45 1011.5
20260503223055 82 292 4.0 10.0 0.00 0.00 0.00 44 1011.5
20260503222655 81 227 4.0 8.0 0.00 0.00 0.00 48 1011.7
20260503222052 82 241 3.0 10.0 0.00 0.00 0.00 46 1011.6
20260503221553 82 263 4.0 10.0 0.00 0.00 0.00 46 1011.8
20260503221054 81 258 4.0 10.0 0.00 0.00 0.00 48 1011.9
20260503220551 82 282 4.0 11.0 0.00 0.00 0.00 47 1012.0
20260503220051 83 283 5.0 11.0 0.00 0.00 0.00 47 1012.0
20260503215549 82 276 3.0 8.0 0.00 0.00 0.00 48 1012.1
20260503215048 80 249 4.0 9.0 0.00 0.00 0.00 52 1012.3
20260503214549 81 221 3.0 10.0 0.00 0.00 0.00 50 1012.2
20260503214046 81 292 4.0 11.0 0.00 0.00 0.00 48 1012.3
20260503213546 81 268 6.0 11.0 0.00 0.00 0.00 48 1012.4
20260503213045 81 286 4.0 11.0 0.00 0.00 0.00 50 1012.4
20260503212646 81 288 0.0 5.0 0.00 0.00 0.00 50 1012.5
20260503212045 80 236 0.0 5.0 0.00 0.00 0.00 50 1012.5
20260503211603 80 232 1.0 5.0 0.00 0.00 0.00 49 1012.6
20260503211042 80 221 0.0 3.0 0.00 0.00 0.00 49 1012.6
20260503210642 80 252 0.0 3.0 0.00 0.00 0.00 49 1012.6
20260503210040 80 206 0.0 6.0 0.00 0.00 0.00 49 1012.7
20260503205540 80 213 0.0 4.0 0.00 0.00 0.00 49 1012.7
20260503205039 79 211 1.0 6.0 0.00 0.00 0.00 49 1012.7
20260503204539 79 265 1.0 6.0 0.00 0.00 0.00 50 1012.7
20260503204039 79 217 0.0 3.0 0.00 0.00 0.00 51 1012.8
20260503203537 79 336 0.0 4.0 0.00 0.00 0.00 51 1013.0
20260503203044 79 207 1.0 4.0 0.00 0.00 0.00 51 1012.9
20260503202035 79 302 2.0 10.0 0.00 0.00 0.00 53 1012.9
20260503201534 78 302 2.0 9.0 0.00 0.00 0.00 54 1013.1
20260503201036 78 288 5.0 9.0 0.00 0.00 0.00 56 1013.1
20260503200532 78 297 5.0 9.0 0.00 0.00 0.00 55 1013.1
20260503200046 77 268 2.0 7.0 0.00 0.00 0.00 58 1013.2
20260503195531 77 284 2.0 8.0 0.00 0.00 0.00 55 1013.3
20260503195030 78 290 4.0 8.0 0.00 0.00 0.00 55 1013.4
20260503194530 76 273 4.0 9.0 0.00 0.00 0.00 58 1013.4
20260503194028 78 277 3.0 9.0 0.00 0.00 0.00 56 1013.4
20260503193527 78 289 4.0 9.0 0.00 0.00 0.00 55 1013.6
20260503193032 76 288 1.0 6.0 0.00 0.00 0.00 57 1013.7
20260503192627 76 222 0.0 3.0 0.00 0.00 0.00 58 1013.8
20260503192026 75 260 0.0 3.0 0.00 0.00 0.00 57 1013.8
20260503191524 75 312 1.0 3.0 0.00 0.00 0.00 57 1013.9
20260503191024 75 304 0.0 2.0 0.00 0.00 0.00 56 1013.9
20260503190524 76 351 0.0 2.0 0.00 0.00 0.00 55 1013.9
20260503190022 76 24 0.0 3.0 0.00 0.00 0.00 56 1013.9
20260503185521 75 346 0.0 3.0 0.00 0.00 0.00 54 1013.9
20260503185026 75 190 0.0 4.0 0.00 0.00 0.00 52 1014.0
20260503184519 74 222 0.0 4.0 0.00 0.00 0.00 54 1014.0
20260503184018 74 214 1.0 4.0 0.00 0.00 0.00 56 1014.2
20260503183518 74 336 0.0 3.0 0.00 0.00 0.00 56 1014.2
20260503183017 74 355 0.0 2.0 0.00 0.00 0.00 58 1014.2
20260503182616 73 12 0.0 2.0 0.00 0.00 0.00 58 1014.3
20260503182019 73 344 0.0 2.0 0.00 0.00 0.00 58 1014.3
20260503181515 73 23 0.0 2.0 0.00 0.00 0.00 57 1014.3
20260503181014 73 355 0.0 1.0 0.00 0.00 0.00 59 1014.4
20260503180513 73 215 0.0 2.0 0.00 0.00 0.00 60 1014.4
20260503180012 72 345 0.0 2.0 0.00 0.00 0.00 61 1014.6
20260503175511 72 24 0.0 2.0 0.00 0.00 0.00 59 1014.5
20260503175011 72 319 0.0 3.0 0.00 0.00 0.00 61 1014.6
20260503174515 72 215 0.0 3.0 0.00 0.00 0.00 60 1014.6
20260503174009 72 221 0.0 3.0 0.00 0.00 0.00 61 1014.6
20260503173509 72 39 0.0 2.0 0.00 0.00 0.00 60 1014.6
20260503173008 71 321 0.0 1.0 0.00 0.00 0.00 62 1014.6
20260503172607 71 225 0.0 2.0 0.00 0.00 0.00 61 1014.7
20260503172007 71 257 0.0 2.0 0.00 0.00 0.00 61 1014.8
20260503171508 71 227 0.0 2.0 0.00 0.00 0.00 62 1014.8
20260503171008 71 245 0.0 3.0 0.00 0.00 0.00 62 1014.7
20260503170508 70 217 1.0 3.0 0.00 0.00 0.00 62 1014.8
20260503150547 67 74 0.0 1.0 0.00 0.00 0.00 55 1015.1